カタログに戻る

STARLINK-31657

運用中通信VLEO
NORAD 59487·PAYLOAD·🇺🇸 United States

打ち上げ Apr 13, 2024 から Cape Canaveral Space Force Station

Loading…

次のパス (今後24時間)

TLE

最新Source: CelesTrak SupGP

元期: Sep 15, 2026, 02:42 UTC

1 59487C 24071D   26258.11298611  .00038227  00000+0  13848-2 0  2584
2 59487  43.0030 349.8928 0001756 262.3840 200.6035 15.27553172    17

AllMySatでSTARLINK-31657をリアルタイム追跡

Download on the App Store